Wind_Speed
3 3 3 3 3 4 4 4 4 4 4 4 4 4 4 4 4 3 3 3 3 4 4 4 3 3 3 3 3 4 5 4 5 5 5 5 6 7 7 7 8 8 8
4 4 4 4 5 5 4 4 4 4 5 5 5 5 5 4 5 5 4 4 4 4 5 5 4 5 5 5 4 5 5 5 6 6 6 6 7 8 8 9 9 8 8
5 5 5 5 5 5 5 5 5 5 5 6 6 6 6 5 5 5 5 5 5 5 5 6 5 5 5 5 6 6 6 6 6 7 7 7 7 7 7 7 8 9 8
6 6 6 6 6 6 6 6 6 7 7 7 7 6 6 6 5 6 5 6 6 6 5 5 6 6 6 6 6 6 6 7 7 7 7 7 7 7 7 7 8 8 8
6 7 7 6 6 7 7 7 7 7 7 7 7 7 6 6 6 6 6 6 6 6 6 6 6 6 6 6 6 7 7 7 8 7 7 7 7 7 8 8 9 8 9
6 7 7 6 7 7 8 8 8 8 8 8 8 7 7 7 7 7 7 7 7 7 7 7 7 7 7 7 7 7 7 7 7 7 7 7 7 8 8 9 9 9 10
6 6 7 7 7 8 8 8 8 8 8 8 8 8 8 7 8 8 8 7 7 8 7 8 8 7 8 8 8 8 8 8 8 8 7 8 8 8 8 9 9 10 10
7 7 7 7 8 8 8 8 8 8 8 9 9 9 9 9 9 9 9 8 8 9 9 9 9 9 9 9 9 9 9 9 9 9 9 9 9 9 10 10 10 10 11
8 7 7 8 8 8 8 8 9 9 9 9 10 10 10 10 9 9 9 9 9 9 10 9 9 9 9 9 9 9 10 10 10 10 10 10 10 11 11 11 11 12 11
8 8 8 8 8 8 8 8 9 9 9 10 10 10 10 10 10 10 9 9 9 9 9 9 9 10 10 10 10 10 11 11 11 11 11 11 11 11 12 11 11 12 12
9 9 9 9 9 8 9 9 9 9 10 11 11 11 11 11 11 11 10 9 10 10 10 10 10 10 10 10 11 11 11 11 11 11 11 12 11 12 12 12 12 11 12
9 10 10 10 9 9 9 10 10 10 11 11 11 11 11 11 11 11 10 10 9 9 10 10 10 9 10 10 11 10 10 10 11 11 11 12 12 12 12 12 12 12 12
9 10 10 10 10 10 10 10 11 11 11 11 11 11 11 11 11 11 10 11 10 10 9 9 9 9 9 10 10 10 10 10 11 11 11 12 12 12 12 12 12 12 13
9 9 10 11 11 11 11 11 11 12 12 11 11 11 12 11 11 11 11 11 10 10 9 10 10 10 10 10 10 10 10 10 9 10 10 11 12 11 11 11 12 13 14
10 10 10 10 11 11 11 11 12 12 12 11 11 11 11 11 11 11 12 12 12 11 10 11 11 11 11 11 10 11 11 11 11 11 10 10 11 12 12 12 13 14 14
11 11 11 11 11 11 11 12 12 12 12 12 12 11 11 12 12 12 12 12 12 12 12 12 12 12 12 12 12 11 12 11 11 12 12 11 11 12 13 13 14 14 14
12 12 12 12 12 12 12 12 12 12 12 12 12 12 12 12 12 12 12 12 12 12 12 12 13 13 13 13 12 12 12 12 12 12 13 13 13 13 13 14 13 14 14
12 12 12 12 12 12 13 13 12 12 12 11 12 12 12 12 12 12 12 11 11 11 12 12 13 13 13 13 13 13 13 13 13 13 13 13 13 14 14 14 14 15 15
12 13 13 12 13 13 13 12 12 12 12 12 12 12 12 12 12 12 12 12 12 12 12 13 14 14 14 14 14 14 14 14 14 14 14 14 14 14 14 14 15 15 15
13 13 13 13 13 13 13 12 12 12 12 12 12 12 12 12 11 11 12 12 12 13 13 13 14 14 14 14 15 15 15 15 15 15 15 15 14 14 14 14 14 15 14
14 13 13 13 13 13 12 12 12 12 12 12 12 12 12 12 12 12 12 12 12 13 13 13 14 14 14 14 15 15 15 15 15 15 15 15 15 15 15 15 14 14 13
14 14 14 14 14 13 13 13 13 13 13 13 13 13 13 13 13 12 12 12 13 13 14 13 14 14 14 15 15 15 15 15 15 16 16 16 16 16 16 16 15 15 14
15 15 14 14 14 14 14 14 14 14 14 13 14 14 14 13 13 13 13 13 13 14 14 14 14 15 15 16 15 15 15 16 16 16 17 17 16 16 16 17 16 16 15
15 15 14 14 14 15 15 15 15 15 14 14 14 14 14 14 14 14 14 14 14 14 15 15 15 15 15 15 16 16 16 17 17 17 17 17 17 17 17 17 17 17 17
15 15 15 15 16 16 16 16 16 16 15 15 14 14 14 14 14 15 14 14 15 16 16 15 15 15 15 16 17 17 17 18 18 18 18 18 18 18 19 19 19 18 18
16 16 16 16 17 17 17 17 16 16 16 16 16 15 14 14 15 15 15 15 16 16 16 16 16 17 17 17 18 18 19 19 19 19 19 19 19 19 19 19 19 19 19
Wind_Direction
245 252 260 263 275 286 299 296 301 296 295 304 314 314 309 307 301 287 278 277 281 281 279 278 280 278 277 270 258 256 261 270 272 273 274 271 273 274 268 263 256 255 254
255 258 264 267 275 285 291 299 301 297 294 301 306 306 303 304 299 292 280 277 280 281 279 282 284 286 285 283 275 272 271 274 274 273 276 277 279 277 267 260 256 259 263
263 265 268 274 276 284 293 296 295 296 297 300 303 305 304 303 295 289 283 282 285 285 283 283 285 286 284 279 279 280 278 276 277 276 276 279 284 282 279 264 258 257 257
266 268 269 273 276 281 286 291 292 292 294 297 300 303 302 300 294 289 286 283 283 286 287 285 285 284 286 286 286 283 280 277 276 279 276 274 278 279 269 261 257 261 261
272 267 267 270 274 281 286 289 291 292 291 293 294 298 299 298 295 293 289 288 288 287 286 284 285 286 287 287 287 283 280 280 281 281 282 276 273 275 269 268 267 270 263
282 275 270 271 278 286 291 291 290 291 292 294 295 296 297 298 296 295 290 287 287 285 283 280 281 284 286 285 285 284 283 283 287 286 283 281 281 282 277 276 275 275 269
282 281 281 282 285 290 293 293 293 293 291 290 292 293 293 294 296 295 291 286 285 281 279 278 278 280 282 281 281 281 281 282 284 286 286 289 286 283 282 278 276 274 273
279 280 281 283 288 292 292 290 292 294 297 295 292 293 291 290 293 293 289 286 285 283 281 279 277 277 280 280 280 279 277 277 280 282 285 285 282 279 279 279 279 278 276
281 282 281 283 287 290 290 288 291 293 296 297 292 289 290 290 291 292 290 285 283 282 281 279 277 276 279 279 278 278 277 277 278 280 281 281 281 280 281 282 280 278 276
281 281 281 283 287 288 288 288 291 293 294 295 293 289 287 288 290 291 294 292 287 284 282 282 282 280 280 279 278 278 277 277 279 280 280 280 280 279 279 279 279 277 276
283 282 280 281 284 286 286 288 290 291 292 292 292 290 289 290 292 294 295 296 290 287 285 283 285 287 283 281 280 280 279 278 279 279 279 277 279 279 277 279 279 279 279
285 284 281 280 283 285 286 288 288 288 290 290 291 290 289 289 291 292 294 296 294 290 287 286 287 288 287 286 284 282 282 281 278 276 276 277 279 278 278 278 278 279 280
287 287 286 284 286 287 287 288 286 286 287 289 290 289 287 286 287 289 290 292 290 288 287 287 288 289 289 289 287 285 283 283 280 280 278 279 279 278 277 276 277 278 280
289 289 289 286 288 289 289 289 288 286 285 286 288 288 287 285 285 286 286 287 287 285 283 283 285 287 290 292 291 288 285 286 287 284 281 282 282 279 277 277 281 283 281
287 288 291 291 290 290 291 290 288 289 288 288 289 288 288 286 285 284 286 286 283 284 286 285 285 286 290 291 292 288 286 287 287 288 287 283 283 281 281 281 283 285 285
288 287 290 291 292 292 292 293 289 288 292 290 288 288 287 287 288 291 290 290 286 284 286 285 286 287 288 288 287 287 288 290 289 289 288 287 282 280 279 279 281 281 283
288 288 290 291 291 293 295 295 294 290 293 292 289 287 286 287 288 289 290 291 290 287 288 287 287 286 285 285 286 288 291 290 288 288 287 286 287 287 287 287 286 284 286
291 291 291 291 290 292 293 292 294 293 294 296 292 289 289 286 287 287 288 290 290 290 288 287 287 286 285 285 286 288 289 289 287 289 289 289 290 290 288 288 290 290 289
291 289 288 290 290 291 293 293 294 295 295 296 296 293 293 294 291 290 289 292 293 292 291 289 285 284 284 285 286 288 288 287 285 286 288 290 293 293 290 289 289 292 292
290 290 290 289 290 290 293 293 292 293 294 294 294 295 294 294 294 291 289 292 293 293 294 293 289 286 286 286 288 290 289 288 286 286 287 289 291 292 290 289 289 291 290
288 289 289 288 288 288 288 288 288 290 291 292 292 293 295 293 293 291 288 290 290 293 294 295 290 288 288 288 289 290 290 290 290 290 289 288 288 289 288 288 288 288 286
286 287 287 287 286 285 286 287 287 288 289 289 289 291 291 292 293 293 290 290 290 293 295 295 291 289 289 290 291 291 291 291 291 291 291 289 288 289 288 288 287 284 283
283 286 286 285 282 285 286 288 289 290 288 286 288 290 291 290 291 293 292 291 292 292 293 294 292 291 290 291 292 292 291 291 292 292 292 290 289 290 289 288 286 284 281
283 281 281 283 283 284 286 288 288 288 289 288 288 288 289 291 293 292 293 292 293 294 293 292 291 292 292 290 291 292 293 293 292 293 293 291 290 290 290 288 286 283 282
280 279 279 280 281 284 284 285 286 286 286 286 285 285 288 291 292 291 291 290 291 292 292 292 291 291 292 291 292 292 293 294 293 293 292 291 291 290 290 289 287 284 279
278 277 279 280 282 283 284 285 285 284 284 283 284 283 284 288 290 289 290 290 290 291 291 290 290 290 291 292 292 292 292 292 292 292 292 291 290 289 289 288 286 285 282
Height
5876 5876 5876 5876 5876 5876 5875 5875 5875 5875 5874 5874 5873 5873 5872 5872 5871 5871 5871 5871 5870 5870 5870 5870 5870 5870 5870 5870 5870 5870 5870 5870 5871 5871 5871 5871 5871 5870 5869 5870 5871 5872 5873
5876 5875 5875 5876 5875 5875 5875 5875 5875 5874 5874 5873 5873 5872 5872 5871 5871 5871 5870 5870 5870 5870 5870 5869 5870 5870 5869 5870 5869 5869 5869 5869 5870 5870 5870 5870 5870 5869 5867 5868 5869 5871 5872
5875 5875 5875 5875 5875 5875 5875 5874 5874 5874 5873 5873 5872 5872 5871 5871 5870 5870 5870 5870 5869 5869 5869 5869 5869 5869 5869 5869 5869 5869 5869 5869 5869 5869 5869 5869 5869 5867 5865 5865 5868 5869 5870
5875 5875 5875 5875 5875 5874 5874 5874 5873 5873 5873 5872 5872 5871 5871 5870 5870 5870 5869 5869 5869 5869 5868 5868 5868 5868 5868 5868 5868 5868 5868 5868 5868 5868 5868 5868 5868 5867 5866 5866 5867 5868 5869
5874 5874 5874 5874 5874 5874 5873 5873 5873 5872 5872 5871 5871 5870 5870 5870 5869 5869 5869 5868 5868 5868 5868 5868 5867 5867 5867 5867 5867 5867 5867 5867 5866 5867 5867 5867 5866 5866 5866 5866 5866 5867 5867
5873 5873 5873 5873 5873 5873 5872 5872 5871 5871 5871 5870 5870 5869 5869 5869 5868 5868 5868 5867 5867 5867 5867 5867 5866 5866 5866 5866 5865 5865 5865 5865 5865 5865 5865 5865 5865 5865 5865 5865 5865 5865 5865
5873 5872 5872 5872 5872 5872 5871 5871 5870 5870 5870 5869 5869 5868 5868 5868 5867 5867 5867 5866 5866 5866 5866 5865 5865 5865 5865 5864 5864 5864 5864 5864 5864 5864 5863 5864 5864 5864 5863 5863 5863 5863 5863
5872 5872 5871 5871 5871 5871 5870 5870 5869 5869 5868 5868 5867 5867 5866 5866 5866 5865 5865 5865 5864 5864 5864 5864 5864 5863 5863 5863 5863 5862 5862 5862 5862 5862 5862 5862 5862 5862 5861 5861 5861 5861 5861
5871 5871 5871 5870 5870 5869 5869 5869 5868 5868 5867 5867 5866 5866 5865 5865 5864 5864 5863 5863 5863 5862 5862 5862 5862 5862 5861 5861 5861 5861 5860 5860 5860 5860 5860 5860 5860 5860 5860 5859 5859 5859 5859
5869 5869 5869 5869 5869 5868 5868 5867 5867 5866 5866 5865 5865 5864 5863 5863 5863 5862 5862 5861 5861 5860 5860 5860 5860 5860 5860 5859 5859 5859 5859 5858 5858 5858 5858 5858 5858 5858 5857 5857 5857 5857 5856
5868 5868 5868 5867 5867 5867 5866 5866 5865 5865 5864 5864 5863 5862 5862 5861 5861 5861 5860 5859 5859 5859 5858 5858 5858 5858 5858 5857 5857 5857 5856 5856 5856 5856 5856 5856 5856 5855 5855 5855 5855 5854 5854
5866 5866 5866 5866 5866 5865 5865 5864 5864 5863 5862 5862 5861 5860 5860 5860 5859 5859 5859 5858 5857 5857 5856 5856 5856 5856 5856 5855 5855 5855 5854 5854 5854 5854 5854 5853 5853 5853 5853 5853 5852 5852 5852
5865 5865 5864 5864 5864 5863 5863 5862 5862 5861 5860 5860 5859 5859 5858 5858 5857 5857 5857 5856 5856 5855 5855 5854 5854 5854 5854 5853 5853 5852 5852 5852 5851 5851 5851 5851 5850 5850 5850 5850 5849 5849 5849
5863 5863 5863 5862 5862 5861 5861 5860 5860 5859 5858 5857 5857 5856 5856 5855 5855 5855 5855 5854 5854 5853 5853 5853 5852 5852 5852 5851 5851 5850 5850 5850 5849 5849 5848 5848 5847 5847 5847 5847 5847 5846 5846
5862 5861 5861 5860 5860 5859 5859 5858 5858 5857 5856 5855 5855 5854 5854 5853 5853 5853 5853 5852 5852 5851 5851 5851 5850 5850 5850 5849 5849 5848 5848 5848 5847 5847 5845 5844 5844 5844 5844 5844 5844 5844 5843
5860 5860 5859 5859 5858 5858 5857 5856 5856 5855 5854 5853 5853 5852 5851 5851 5851 5850 5850 5850 5849 5849 5849 5848 5848 5848 5847 5847 5846 5846 5845 5845 5844 5844 5843 5842 5842 5842 5841 5841 5841 5840 5840
5858 5858 5857 5857 5856 5856 5855 5854 5854 5853 5852 5852 5851 5850 5849 5849 5848 5848 5848 5847 5847 5847 5846 5846 5845 5845 5845 5844 5844 5843 5843 5842 5842 5841 5841 5840 5840 5839 5838 5838 5837 5837 5836
5856 5856 5855 5855 5854 5854 5853 5852 5851 5851 5850 5849 5849 5848 5847 5847 5846 5846 5846 5845 5845 5844 5844 5843 5843 5842 5842 5841 5841 5840 5840 5840 5839 5838 5838 5837 5837 5836 5836 5835 5834 5833 5833
5854 5853 5853 5853 5852 5851 5851 5850 5849 5848 5848 5847 5846 5845 5845 5844 5844 5843 5843 5843 5842 5842 5841 5840 5840 5839 5839 5838 5838 5838 5837 5837 5836 5836 5835 5834 5834 5833 5832 5832 5831 5830 5828
5851 5851 5851 5850 5850 5849 5849 5848 5847 5846 5845 5845 5844 5843 5843 5842 5841 5841 5841 5840 5840 5839 5838 5837 5837 5836 5836 5835 5835 5835 5834 5833 5833 5832 5832 5831 5830 5829 5829 5828 5827 5826 5824
5849 5848 5848 5847 5847 5847 5846 5845 5845 5844 5843 5842 5842 5841 5840 5840 5839 5839 5838 5838 5837 5836 5835 5834 5834 5833 5833 5832 5832 5831 5831 5830 5829 5829 5828 5828 5827 5826 5825 5825 5824 5823 5821
5846 5846 5845 5844 5844 5844 5843 5843 5842 5841 5841 5840 5839 5839 5838 5837 5837 5836 5835 5835 5834 5833 5832 5832 5831 5830 5830 5829 5828 5828 5827 5827 5826 5825 5824 5824 5823 5822 5822 5821 5820 5820 5819
5843 5842 5842 5841 5841 5841 5840 5840 5839 5838 5838 5837 5836 5836 5835 5834 5834 5833 5832 5832 5831 5830 5829 5829 5828 5827 5826 5825 5825 5824 5824 5823 5822 5821 5820 5820 5819 5818 5817 5817 5816 5816 5816
5839 5839 5839 5838 5838 5838 5837 5837 5836 5835 5835 5834 5833 5833 5832 5831 5830 5830 5829 5828 5828 5827 5826 5825 5824 5824 5823 5822 5821 5820 5820 5819 5818 5817 5816 5815 5814 5814 5813 5812 5812 5812 5812
5835 5835 5835 5835 5835 5834 5834 5833 5832 5831 5831 5830 5830 5829 5829 5828 5827 5826 5826 5825 5824 5823 5822 5821 5821 5820 5819 5818 5817 5816 5815 5814 5813 5813 5812 5811 5810 5809 5808 5807 5807 5807 5807
5831 5831 5831 5831 5831 5830 5830 5829 5828 5827 5826 5826 5826 5826 5825 5824 5823 5823 5822 5821 5820 5819 5818 5818 5817 5816 5815 5814 5813 5812 5811 5810 5808 5808 5807 5806 5805 5804 5803 5802 5802 5801 5801